TimeCDT,TemperatureF,Dew PointF,Humidity,Sea Level PressureIn,VisibilityMPH,Wind Direction,Wind SpeedMPH,Gust SpeedMPH,PrecipitationIn,Events,Conditions,WindDirDegrees,DateUTC
12:56 AM,45.0,41.9,89,29.86,10.0,Calm,Calm,-,N/A,,Clear,0,2012-10-02 05:56:00
1:56 AM,48.9,45.0,86,29.88,10.0,Calm,Calm,-,N/A,,Scattered Clouds,0,2012-10-02 06:56:00
2:56 AM,52.0,47.8,86,29.87,10.0,Calm,Calm,-,N/A,,Clear,0,2012-10-02 07:56:00
4:56 AM,48.9,46.9,93,29.89,10.0,Calm,Calm,-,N/A,,Clear,0,2012-10-02 09:56:00
5:56 AM,48.9,47.8,96,29.91,10.0,Calm,Calm,-,N/A,,Clear,0,2012-10-02 10:56:00
7:56 AM,50.9,48.9,93,29.95,10.0,NNE,4.6,-,N/A,,Clear,20,2012-10-02 12:56:00
8:56 AM,54.0,47.8,80,29.96,10.0,NNE,5.8,-,N/A,,Clear,30,2012-10-02 13:56:00
9:56 AM,57.9,48.9,72,29.96,10.0,ENE,9.2,-,N/A,,Clear,60,2012-10-02 14:56:00
10:56 AM,61.0,48.9,64,29.95,10.0,ENE,9.2,-,N/A,,Clear,60,2012-10-02 15:56:00
11:56 AM,61.9,48.9,62,29.94,10.0,Calm,Calm,-,N/A,,Clear,0,2012-10-02 16:56:00
12:56 PM,64.9,47.8,54,29.93,10.0,ENE,4.6,-,N/A,,Clear,70,2012-10-02 17:56:00
1:56 PM,66.9,47.8,50,29.90,10.0,Calm,Calm,-,N/A,,Clear,0,2012-10-02 18:56:00
2:56 PM,68.0,48.9,50,29.89,10.0,East,3.5,-,N/A,,Clear,80,2012-10-02 19:56:00
3:56 PM,68.9,48.9,49,29.88,10.0,Calm,Calm,-,N/A,,Clear,0,2012-10-02 20:56:00
4:56 PM,68.9,48.9,49,29.88,10.0,Calm,Calm,-,N/A,,Clear,0,2012-10-02 21:56:00
5:56 PM,66.9,48.9,52,29.89,10.0,Calm,Calm,-,N/A,,Clear,0,2012-10-02 22:56:00
6:56 PM,61.9,48.9,62,29.91,10.0,Calm,Calm,-,N/A,,Clear,0,2012-10-02 23:56:00
9:56 PM,47.8,45.9,93,29.95,10.0,Calm,Calm,-,N/A,,Clear,0,2012-10-03 02:56:00
10:56 PM,46.9,45.0,93,29.96,10.0,Calm,Calm,-,N/A,,Clear,0,2012-10-03 03:56:00
11:56 PM,45.9,43.9,93,29.95,8.0,Calm,Calm,-,N/A,,Clear,0,2012-10-03 04:56:00